SCP
0 0 0 0 0 0 0 0 0 0 0 0 0 0 0 0 0 0 0 0 0 0 0 0 0 0 0 0 0 0 0 0 0 0 0 0 0 0 0 0 0 0 0
0 0 0 0 0 0 0 0 0 0 0 0 0 0 0 0 0 0 0 0 0 0 0 0 0 0 0 0 0 0 0 0 0 0 0 0 0 0 0 0 0 0 0
0 0 0 0 0 0 0 0 0 0 0 0 0 0 0 0 0 0 0 0 0 0 0 0 0 0 0 0 0 0 0 0 0 0 0 0 0 0 0 0 0 0 0
0 0 0 0 0 0 0 0 0 0 0 0 0 0 0 0 0 0 0 0 0 0 0 0 0 0 0 0 0 0 0 0 0 0 0 0 0 0 0 0 0 0 0
0 0 0 0 0 0 0 0 0 0 0 0 0 0 0 0 0 0 0 0 0 0 0 0 0 0 0 0 0 0 0 0 0 0 0 0 0 0 0 0 0 0 0
0 0 0 0 0 0 0 0 0 0 0 0 0 0 0 0 0 0 0 0 0 0 0 0 0 0 0 0 0 0 0 0 0 0 0 0 0 0 0 0 0 0 0
0 0 0 0 0 0 0 0 0 0 0 0 0 0 0 0 0 0 0 0 0 0 0 0 0 0 0 0 0 0 0 0 0 0 0 0 0 0 0 0 0 0 0
0 0 0 0 0 0 0 0 0 0 0 0 0 0 0 0 0 0 0 0 0 0 0 0 0 0 0 0 0 0 0 0 0 0 0 0 0 0 0 0 0 0 1
0 0 0 0 0 0 0 0 0 0 0 0 0 0 0 0 0 0 0 0 0 0 0 0 0 0 0 0 0 0 0 0 0 0 0 0 0 0 0 0 0 0 0
0 0 0 0 0 0 0 0 0 0 0 0 0 0 0 0 0 0 0 0 0 0 0 0 0 0 0 0 0 0 0 0 0 0 0 0 0 0 0 0 0 0 0
0 0 0 0 0 0 0 0 0 0 0 0 0 0 0 0 0 0 0 0 0 0 0 0 0 0 0 0 0 0 0 0 0 0 0 0 0 0 0 0 0 0 0
0 0 0 0 0 0 0 0 0 0 0 0 0 0 0 0 0 0 0 0 0 0 0 0 0 0 0 0 0 0 0 0 0 0 0 0 0 0 0 0 0 0 0
0 0 0 0 0 0 0 0 0 0 0 0 0 0 0 0 0 0 0 0 0 0 0 0 0 0 0 0 0 0 0 0 0 0 0 0 0 0 0 0 0 0 0
0 0 0 0 0 0 0 0 0 0 0 0 0 0 0 0 0 0 0 0 0 0 0 0 0 0 0 0 0 0 0 0 0 0 0 0 0 0 0 0 0 0 0
0 0 0 0 0 0 0 0 0 0 0 0 0 0 0 0 0 0 0 0 0 0 0 0 0 0 0 0 0 0 0 0 0 0 0 0 0 0 0 0 0 0 0
0 0 0 0 0 0 0 0 0 0 0 0 0 0 0 0 0 0 0 0 0 0 0 0 0 0 0 0 0 0 0 0 0 0 0 0 0 0 0 0 0 0 0
0 0 0 0 0 0 0 0 0 0 0 0 0 0 0 0 0 0 0 0 0 0 0 0 0 0 0 0 0 0 0 0 0 0 0 0 0 0 0 0 0 0 0
0 0 0 0 0 0 0 0 0 0 0 0 0 0 0 0 0 0 0 0 0 0 0 0 0 0 0 0 0 0 0 0 0 0 0 0 0 0 0 0 0 0 0
0 0 0 0 0 0 0 0 0 0 0 0 0 0 0 0 0 0 0 0 0 0 0 0 0 0 0 0 0 0 0 0 0 0 0 0 0 0 0 0 0 0 0
0 0 0 0 0 0 0 0 0 0 0 0 0 0 0 0 0 0 0 0 0 0 0 0 0 0 0 0 0 0 0 0 0 0 0 0 0 0 0 0 0 0 0
0 0 0 0 0 0 0 0 0 0 0 0 0 0 0 0 0 0 0 0 0 0 0 0 0 0 0 0 0 0 0 0 0 0 0 0 0 0 0 0 0 0 0
0 0 0 0 0 0 0 0 0 0 0 0 0 0 0 0 0 0 0 0 0 0 0 0 0 0 0 0 0 0 0 0 0 0 0 0 0 0 0 0 0 0 0
0 0 0 0 0 0 0 0 0 0 0 0 0 0 0 0 0 0 0 0 0 0 0 0 0 0 0 0 0 0 0 0 0 0 0 0 0 0 0 0 0 0 0
0 0 0 0 0 0 0 0 0 0 0 0 0 0 0 0 0 0 0 0 0 0 0 0 0 0 0 0 0 0 0 0 0 0 0 0 0 0 0 0 0 0 0
0 0 0 0 0 0 0 0 0 0 0 0 0 0 0 0 0 0 0 0 0 0 0 0 0 0 0 0 0 0 0 0 0 0 0 0 0 0 0 0 0 0 0
0 0 0 0 0 0 0 0 0 0 0 0 0 0 0 0 0 0 0 0 0 0 0 0 0 0 0 0 0 0 0 0 0 0 0 0 0 0 0 0 0 0 0
Wind_Speed
3 2 2 1 1 1 1 1 1 2 2 2 2 3 3 4 4 4 3 8 10 12 13 14 15 15 15 16 16 16 16 15 15 15 15 15 16 17 17 17 18 18 19
3 3 2 2 1 1 1 0 1 1 2 2 3 3 4 4 4 4 4 5 9 11 12 13 14 15 16 17 17 18 18 18 17 17 17 16 17 17 17 18 18 19 20
4 3 3 2 2 2 1 0 1 1 2 2 3 4 4 4 5 5 5 3 4 7 10 12 13 14 15 16 17 18 19 19 19 19 19 18 18 18 19 19 19 20 20
5 4 3 3 2 2 1 1 1 1 2 2 3 4 4 4 5 5 4 3 3 3 6 10 12 13 15 16 17 18 19 19 20 20 20 20 20 20 20 20 20 20 21
6 4 4 3 3 2 2 1 1 1 2 3 3 4 4 4 4 4 4 4 3 3 3 7 10 12 14 15 17 18 19 19 20 20 20 21 21 21 22 22 22 22 22
6 5 4 4 4 3 2 2 2 2 2 2 3 4 4 4 3 3 3 3 3 3 4 4 5 6 12 15 17 18 19 20 20 20 21 22 22 23 23 24 24 24 24
7 6 4 4 4 4 4 3 2 2 1 1 2 4 4 3 2 2 2 2 3 4 4 4 4 4 5 12 16 18 19 20 21 22 22 23 23 24 24 25 25 25 25
7 6 6 5 5 4 4 3 3 2 1 1 0 2 4 5 3 2 2 2 3 3 4 4 4 5 4 4 9 17 19 21 22 23 23 24 24 25 25 25 25 26 26
7 7 7 5 5 4 4 4 4 4 2 1 1 1 1 3 4 3 2 2 3 3 4 4 5 5 5 4 5 12 19 21 22 23 23 24 24 25 25 26 26 26 27
7 7 6 6 5 4 4 4 4 3 3 2 1 2 2 1 2 4 4 2 3 4 4 4 4 5 5 5 7 14 18 21 22 22 23 24 24 25 25 26 26 26 26
5 6 6 5 5 4 4 4 4 4 3 2 2 1 1 1 2 2 5 4 3 3 3 3 3 4 5 6 6 13 20 22 22 22 23 24 24 25 26 26 26 26 27
3 4 5 4 4 4 4 4 4 4 3 2 2 1 1 1 1 2 4 4 4 3 3 2 2 4 5 6 9 18 20 21 22 22 23 23 24 24 25 26 26 27 27
4 5 4 4 4 4 4 4 4 4 3 3 2 2 1 1 0 1 2 3 3 3 2 2 2 4 6 6 7 17 16 20 22 22 23 23 23 24 25 25 26 26 26
5 5 5 5 5 5 5 5 4 4 4 4 4 3 2 2 1 1 0 2 4 3 2 2 2 4 5 5 10 16 10 19 21 22 22 22 23 23 24 25 25 26 26
6 7 7 7 6 6 6 6 5 4 5 4 4 4 3 3 2 2 2 1 1 3 3 2 3 4 5 5 11 8 8 16 20 20 21 21 22 23 23 24 25 25 25
8 8 7 7 7 6 6 6 5 5 6 4 4 5 4 3 3 3 2 2 1 1 4 2 2 4 6 7 12 8 8 17 17 19 20 21 21 22 23 23 24 24 25
9 9 8 8 7 7 6 6 6 6 6 5 5 5 5 3 3 2 2 2 1 1 4 4 2 5 6 7 8 6 7 6 8 17 19 20 20 21 21 22 23 23 24
9 9 9 8 8 7 6 7 7 6 6 6 5 5 4 3 3 2 2 2 1 1 2 6 5 5 6 7 7 8 7 7 6 14 19 19 19 20 21 22 22 22 23
10 9 9 9 8 7 7 6 7 6 6 5 5 4 3 3 3 2 2 1 1 2 2 4 6 5 5 6 7 6 6 5 6 10 14 16 17 19 20 20 20 21 22
11 9 8 8 8 7 7 7 7 7 6 5 4 4 3 3 2 1 1 1 1 2 2 4 5 5 5 5 5 7 8 6 7 6 9 12 14 16 18 19 19 20 20
10 10 10 8 7 6 6 7 7 6 6 5 4 3 2 2 2 1 1 1 1 2 3 4 5 6 5 7 7 6 8 8 6 3 5 6 6 6 8 14 16 18 20
9 9 9 9 7 5 10 11 8 6 5 5 4 3 2 1 1 2 3 3 3 3 3 4 5 7 8 7 6 7 7 8 7 4 6 7 4 5 6 7 16 19 19
9 9 8 8 7 8 12 11 10 6 5 4 4 3 1 1 0 1 3 4 4 6 6 4 5 7 7 7 7 7 6 6 6 6 5 6 4 4 5 8 17 19 20
9 8 8 8 7 7 11 11 11 6 5 4 3 2 1 0 1 2 2 2 2 3 5 3 4 5 4 4 4 5 6 6 6 3 3 4 4 4 4 5 13 18 19
8 7 7 7 7 7 10 10 10 5 4 3 2 1 1 1 3 4 2 2 3 3 6 8 7 7 9 9 6 3 3 4 5 3 2 3 4 4 3 3 7 15 17
8 8 7 6 6 5 8 9 9 4 3 2 1 1 1 2 4 4 2 2 4 4 3 4 5 6 5 6 7 2 2 2 3 4 3 3 3 4 4 3 3 6 8
Wind_Direction
160 157 154 149 140 111 98 50 13 360 353 344 334 326 315 307 299 293 294 301 306 309 312 315 317 319 319 319 319 317 315 312 309 304 298 294 290 286 282 280 278 276 274
168 170 175 179 186 180 178 192 298 325 319 318 314 312 302 298 293 295 293 301 308 313 316 319 322 324 325 325 324 323 323 321 318 315 311 307 303 299 294 289 285 282 278
178 176 181 194 201 190 188 197 294 315 307 309 307 306 298 293 295 296 298 298 307 316 322 328 331 332 332 331 330 328 327 326 325 324 322 320 315 310 305 301 297 292 287
183 178 186 201 190 176 178 198 243 298 298 305 304 302 296 295 296 298 302 307 313 316 327 337 340 339 339 337 335 333 331 331 330 329 328 326 324 320 316 312 307 301 297
185 181 193 196 180 177 190 200 214 230 287 302 300 296 293 293 296 305 313 322 328 331 333 340 344 342 342 343 342 339 336 335 335 334 333 331 329 327 324 319 315 310 305
186 184 192 193 178 181 198 202 218 218 254 287 298 295 292 295 302 310 317 329 339 347 346 340 340 340 344 346 346 344 342 340 339 338 336 334 331 329 326 323 320 316 312
186 186 190 190 185 196 205 196 191 220 258 279 320 318 315 319 333 326 336 346 352 352 347 342 339 338 339 347 349 349 348 346 344 341 339 336 332 329 326 323 321 319 316
191 193 195 195 192 197 201 192 178 178 223 175 101 341 335 339 338 338 350 358 351 349 346 344 344 343 341 343 348 352 351 349 346 344 340 337 333 329 326 323 321 319 318
194 193 197 193 190 189 200 197 187 184 204 196 173 168 325 309 314 319 334 346 349 348 338 340 347 350 351 353 348 352 353 351 349 345 342 338 334 331 328 325 323 321 319
195 194 193 190 190 189 197 195 186 183 180 199 191 207 218 221 282 310 316 329 345 337 333 343 349 352 358 357 356 356 356 353 349 346 343 340 337 334 331 328 326 324 322
189 189 186 182 182 182 187 177 171 174 179 185 181 180 205 220 219 258 292 311 326 314 325 332 346 356 3 4 359 358 357 353 349 347 344 341 338 336 333 331 329 327 325
180 181 175 174 172 171 172 167 163 159 160 159 155 151 162 186 210 245 277 301 310 307 320 338 7 11 13 8 1 359 355 351 348 345 343 341 339 337 335 333 332 330 328
179 181 169 162 156 156 148 142 139 136 138 137 141 136 127 128 121 226 275 299 301 297 315 358 22 28 17 7 356 356 351 348 345 343 342 341 341 340 338 335 334 332 331
174 162 154 144 139 138 134 129 120 117 114 118 112 111 104 82 70 72 31 318 309 305 305 317 11 34 14 0 351 355 344 344 343 343 342 342 341 340 338 338 337 335 333
146 144 140 133 131 127 124 120 115 115 111 105 105 99 93 79 70 62 59 64 319 309 304 322 351 11 1 351 346 343 333 338 342 342 342 342 341 341 340 339 338 337 337
143 140 134 132 127 121 119 115 114 115 109 101 98 96 88 76 68 61 58 53 52 281 284 299 331 340 342 341 341 335 329 339 339 339 342 342 342 342 340 340 341 341 341
143 142 140 134 128 124 122 118 115 116 113 104 94 95 88 82 77 64 57 54 37 338 285 296 311 330 330 333 332 330 328 329 331 338 341 342 343 344 344 345 344 344 344
138 138 136 129 126 124 123 124 123 120 118 113 106 102 96 90 80 65 55 43 17 343 302 305 315 326 325 326 327 326 330 331 326 334 340 343 346 347 347 347 346 347 347
132 131 131 132 131 128 124 122 123 119 114 113 114 113 108 98 84 63 46 27 354 339 315 304 309 314 316 323 328 324 320 321 326 333 340 346 348 348 348 348 350 350 350
134 131 127 127 127 125 125 124 121 117 114 110 109 109 107 104 103 78 41 357 332 325 310 305 306 314 316 321 327 331 332 333 327 331 342 345 345 349 350 351 351 351 353
128 128 125 121 122 125 131 131 126 125 123 119 111 103 98 95 82 67 11 322 325 318 314 315 314 319 324 334 336 330 325 324 320 334 331 330 335 341 346 346 352 356 357
124 126 129 131 131 131 138 136 133 130 130 129 126 114 101 95 39 7 343 331 329 316 310 307 312 317 318 323 322 324 324 330 326 337 333 320 337 340 341 339 355 2 3
131 130 131 133 131 137 139 136 133 130 130 131 130 128 122 109 40 313 315 325 324 315 311 302 298 302 307 316 317 318 320 316 303 314 326 309 329 330 338 343 359 12 15
138 136 138 135 129 137 140 137 135 127 127 129 134 141 151 196 293 296 283 295 297 297 303 296 273 283 287 298 300 305 305 303 289 290 338 304 316 318 329 339 360 14 15
136 134 137 137 135 139 144 143 138 130 129 132 141 159 187 231 288 314 310 295 297 294 310 309 302 306 314 321 327 324 326 330 317 309 1 319 310 314 315 337 356 11 13
135 132 131 133 135 139 150 149 145 138 140 145 156 183 227 267 291 303 279 270 288 292 295 307 311 314 319 321 330 324 298 299 300 301 347 339 312 331 320 322 350 2 6